Location: Clyde
(45.1830°S, 169.3170°E)
Time: 16:47:57
(UTC+12:00)

Cosmos 1943 Rocket - Pass Details

Date: 14 May 2021
Orbit: 813 x 842 km, 71.0° (Epoch: 16 June)

Event Time Altitude Azimuth Distance (km) Brightness Sun altitude
Rises 20:52:15 0° 210° (SSW) 3,423 5.8 -36.4°
Reaches altitude 10° 20:54:45 10° 214° (SW) 2,485 5.1 -36.9°
Enters shadow 20:57:28 28° 226° (SW) 1,549 3.9 -37.4°
